Showing default

ARCTICSAT-1, 61762

Orbit data source: Space-Track

ARCTICSAT-1, 61762 is a Commonwealth of Independent States-origin payload satellite in SSO that was launched on Mon, 04 Nov 2024 UTC via a SOYUZ-2-1B launch vehicle from the Vostochny Cosmodrome (VOSTO). Payload-class satellites include a variety of spacecraft equipped with specific instruments for various scientific and technological missions. These include communications satellites like Starlink; space stations such as the ISS; scientific satellites like the Hubble; Earth observation satellites from companies like Planet Labs, Umbra, and HawkEye 360; GPS; miniature CubeSats for education and research; and military/defense satellites.

Loading next visibility...
Identifier
61762, 2024-199AD
Orbit
SSO
Country
Flag of CISCIS
Related business
Manufacturer
Sputniks
Mission
Operational Amateur Sci/Com
Bus & Motor
CUBESAT 3U, Unknown motor
Mass
3 kg wet, 3 kg dry
Launch date (UTC)
2024-11-04 (10 months ago)
Launch vehicle
SOYUZ-2-1B
Launch site
Vostochny Cosmodrome (VOSTO)
Object type
Payload
Rocket body
Debris
Shape & HBR
Box, 0.1 m
Radar Cross Section
0.035 m², Small (<0.1 m²)

Expand to show TLE details & history
Last TLE update: 14 hours ago

TLE from 14 hours ago
0 ARCTICSAT-1
1 61762U 24199AD  25260.26083106  .00025880  00000-0  59669-3 0  9999
2 61762  97.3385 130.1067 0010211 164.4896 195.6666 15.42507159 95484
Epoch: 2025-09-17T06:15Z
TLE epoch observation values (Epoch: 2025-09-17T06:15:35.803Z)
Latitude
-0.00007°
Longitude
39.7682°
Altitude
448.54 km
Speed
7.639 km/s
True Right ascension
08h 40m 25s
True Declination
0° 00' 00"
Sunlit
Object was in daylight at epoch
Visualization orbit readout
Latitude
Unknown
Longitude
Unknown
Altitude
Unknown
Speed
Unknown
Apparent Right ascension
Unknown
Apparent Declination
Unknown
Sunlit
N/A
Visualization observer readout
Local Sidereal Time
13:10:18
Azimuth
Unknown
Elevation
Unknown
Doppler factor
Unknown
Orbital elements
Apogee altitude
442.603 km
Perigee altitude
428.688 km
Semi-major axis
6,813.783 km
Eccentricity
0.00102
Inclination
97.3385°
RAAN
130.1067°
Arg. of periapsis
164.4896°
True anomaly
195.63504°
Mean anomaly
195.6666°
Eccentric anomaly
195.65082°
Mean motion
3.85888 °/min
Orbital period
93.29 mins
BSTAR
0.00059669
Loading maneuver chart data...
Computing Atmospheric mass density...
Loading historical data...
Loading historical data...
Loading historical data...
Loading historical data...
Loading historical data...
Loading historical data...
Loading historical data...

Documentation

Showing up to 5 results
|